Location: Carrières
(48.9495°N, 2.0407°E)
Time: 13:22:54
(UTC+00:00)

Tiros 1 - Pass Details

Date: 23 April 2024
Orbit: 624 x 657 km, 48.4° (Epoch: 24 May)

Event Time Altitude Azimuth Distance (km) Brightness Sun altitude
Rises 22:18:23 0° 216° (SW) 2,936 - -24.9°
Reaches altitude 10° 22:20:58 10° 204° (SSW) 2,023 - -25.1°
Maximum altitude 22:24:55 28° 146° (SSE) 1,201 - -25.3°
Drops below altitude 10° 22:28:51 10° 88° (E) 2,013 - -25.6°
Sets 22:31:24 0° 77° (ENE) 2,918 - -25.7°
